Terminal Aerodrome Forecast
Issued by NWS

Home | Current Version | Previous Version | Text Only | Print | Product List | Glossary On
Versions: 1 2 3 4 5 6 7 8 9 10 11 12 13 14 15 16 17 18 19 20 21 22 23 24 25 26 27 28 29 30 31 32 33 34 35 36 37 38 39 40 41 42 43 44 45 46 47 48 49 50
000
FTAK31 PANC 281731
TAFASN
TAF
PASN 281731Z 2818/2918 31007KT 3SM BR OVC004
      TEMPO 2818/2820 3/4SM BR VV002
     FM282000 31008KT P6SM OVC007
     FM290300 31007KT 3SM BR OVC004
     FM290600 31005KT 1/2SM FG VV002=

USA.gov is the U.S. government's official web portal to all federal, state and local government web resources and services.